SL-16 R/B (22566 NORAD) Tracking and Keplerian Element Data

This shows tracking and keplerian element data for the satellite.

Feedback or suggestion? Click here.




ElementValue
Catalog22566
NameSL-16 R/B
Epoch Orbit30723
Epoch Day198.81495524
Epoch Year2018
RAAN316.4657
Inclination71.0066
Eccentricity0.0012518
Argument of Perigee254.3667
Mean Anonmoly105.6074
Mean Motion14.14951751
Decay Rate-2.24E-06
L11 22566U 93016B 18198.81495524 -.00000224 00000-0 -91250-4 0 9996
L22 22566 71.0066 316.4657 0012518 254.3667 105.6074 14.14951751307231

Live tracking and technical data element details for SL-16 R/B (NORAD 22566). SL-16 R/B can be tracked NOW for your location showing map with azimuth and elevation plus other details from your city location.

Track the satellite on the map from your city or location and see movement details for azimuth, elevation, latitude, longitude, range, height, and movement on the map or in text.







IsCatalogInMostPopularTable: catalog: 22566, numindb: 19
Update: records affected: 1



GetName: 22566 SL-16 R/B

Hit Count: updated at: Thu, 19 Jul 2018 21:25:56 GMT